Iowa City, IA

5:03 PM CDT on May 26, 2017 (GMT -0500)
Iowa City Municipal

Weather History for KIOW - April, 2013

Change the Weather History Date:

Monday, April 22, 2013

  Actual Average Record
Temperature  
Mean Temperature 58 °F 53 °F  
Max Temperature 69 °F 64 °F 93 °F (1980)
Min Temperature 46 °F 42 °F 28 °F (1986)
Degree Days  
Heating Degree Days 7 12  
Month to date heating degree days 428 341  
Since 1 July heating degree days 6168 6108  
Cooling Degree Days 0 0  
Month to date cooling degree days 0 0  
Year to date cooling degree days 0 0  
Growing Degree Days 8 (Base 50)    
Moisture  
Dew Point 41 °F    
Average Humidity 59    
Maximum Humidity 83    
Minimum Humidity 34    
Precipitation  
Precipitation T in 0.13 in 1.17 in (1984)
Month to date precipitation 8.30 2.31  
Year to date precipitation 13.18 6.69  
Sea Level Pressure  
Sea Level Pressure 30.10 in    
Wind  
Wind Speed 9 mph (South)    
Max Wind Speed 26 mph    
Max Gust Speed 35 mph    
Visibility 10 miles    
Events Rain    
T = Trace of Precipitation, MM = Missing Value Source: NWS Daily Summary

Daily Weather History Graph

Daily Weather History Graph

Search for Another Location

Airport or City:

Trip Planner

Search our weather history database for the weather conditions in past years. The results will help you decide how hot, cold, wet, or windy it might be!

Date:

Astronomy

Apr. 22, 2013 Rise Set
Actual Time 6:15 AM CDT 7:54 PM CDT
Civil Twilight 5:45 AM CDT 8:24 PM CDT
Nautical Twilight 5:10 AM CDT 9:00 PM CDT
Astronomical Twilight 4:32 AM CDT 9:38 PM CDT
Moon 4:41 PM CDT (4/22) 4:12 AM CDT (4/22)
Length of Visible Light 14h 38m
Length of Day
13h 39m
Waxing Gibbous, 88% of the Moon is Illuminated
Apr 22
Waxing Gibbous
Apr 25
Full
May 2
Last Quarter
May 9
New
May 17
First Quarter

Hourly Weather History & Observations

Time (CDT) Temp. Dew Point Humidity Pressure Visibility Wind Dir Wind Speed Gust Speed Precip Events Conditions
12:52 AM 52.0 °F 41.0 °F 66% 30.21 in 10.0 mi SSE 11.5 mph - N/A   Overcast
1:52 AM 52.0 °F 41.0 °F 66% 30.20 in 10.0 mi SSE 13.8 mph 19.6 mph N/A   Overcast
2:52 AM 51.1 °F 39.9 °F 66% 30.19 in 10.0 mi SSE 13.8 mph - N/A   Overcast
3:52 AM 51.1 °F 39.0 °F 63% 30.19 in 10.0 mi SSE 11.5 mph - N/A   Overcast
4:52 AM 50.0 °F 39.0 °F 66% 30.19 in 10.0 mi South 6.9 mph - N/A   Overcast
5:52 AM 48.9 °F 37.9 °F 66% 30.20 in 10.0 mi SSW 4.6 mph - N/A   Mostly Cloudy
6:52 AM 48.0 °F 39.0 °F 71% 30.19 in 10.0 mi SSE 4.6 mph - N/A   Mostly Cloudy
7:52 AM 48.9 °F 39.0 °F 69% 30.19 in 10.0 mi SSE 6.9 mph - N/A   Mostly Cloudy
8:52 AM 51.1 °F 37.9 °F 61% 30.18 in 10.0 mi SSE 8.1 mph - N/A   Overcast
9:52 AM 54.0 °F 39.9 °F 59% 30.17 in 10.0 mi South 8.1 mph - N/A   Overcast
10:52 AM 59.0 °F 42.1 °F 53% 30.16 in 10.0 mi South 11.5 mph 17.3 mph N/A   Partly Cloudy
11:52 AM 63.0 °F 42.1 °F 46% 30.14 in 10.0 mi South 12.7 mph - N/A   Scattered Clouds
12:52 PM 63.0 °F 41.0 °F 45% 30.12 in 10.0 mi South 10.4 mph - N/A   Mostly Cloudy
1:52 PM 64.9 °F 43.0 °F 45% 30.07 in 10.0 mi SSE 9.2 mph - N/A   Mostly Cloudy
2:52 PM 66.0 °F 41.0 °F 40% 30.04 in 10.0 mi SSE 13.8 mph 21.9 mph N/A   Partly Cloudy
3:52 PM 68.0 °F 41.0 °F 37% 30.01 in 10.0 mi SSE 11.5 mph 20.7 mph N/A   Clear
4:52 PM 66.0 °F 39.9 °F 38% 29.99 in 10.0 mi SSE 16.1 mph 23.0 mph N/A   Partly Cloudy
5:52 PM 66.0 °F 39.0 °F 37% 29.98 in 10.0 mi SSE 11.5 mph - N/A   Clear
6:52 PM 64.0 °F 36.0 °F 35% 29.98 in 10.0 mi South 11.5 mph 23.0 mph N/A   Scattered Clouds
7:52 PM 62.1 °F 37.9 °F 41% 29.99 in 10.0 mi South 11.5 mph - N/A   Mostly Cloudy
8:52 PM 61.0 °F 39.0 °F 44% 29.99 in 10.0 mi South 5.8 mph - N/A   Overcast
9:52 PM 59.0 °F 43.0 °F 55% 30.04 in 10.0 mi SW 8.1 mph - N/A Rain Light Rain
10:52 PM 53.1 °F 48.0 °F 83% 30.04 in 10.0 mi West 4.6 mph - N/A   Overcast
11:52 PM 53.1 °F 48.0 °F 83% 30.03 in 10.0 mi West 4.6 mph - N/A   Overcast